Location: Misciano
(43.5000°N, 11.9500°E)
Time: 05:52:13
(UTC+00:00)

Cosmos 841 Rocket - Pass Details

Date: 13 August 2020
Orbit: 746 x 773 km, 74.0° (Epoch: 23 September)

Event Time Altitude Azimuth Distance (km) Brightness Sun altitude
Rises 21:40:22 0° 332° (NNW) 3,235 8.0 -28.1°
Reaches altitude 10° 21:42:51 10° 325° (NW) 2,309 6.9 -28.3°
Enters shadow 21:47:35 40° 261° (W) 1,126 4.4 -28.7°
